| time (UTC) | temp F | wind direction | speed MPH | gust MPH | rain 1hr in | rain 24hr in | rain mn in | humidity % | barometer mb |
| 20260510115522 | 65 | 0 | 0.0 | 2.0 | 0.00 | 2.31 | 0.00 | 98 | 1017.2 |
| 20260510115022 | 64 | 0 | 0.0 | 0.0 | 0.00 | 2.31 | 0.00 | 98 | 1017.2 |
| 20260510114537 | 64 | 0 | 0.0 | 0.0 | 0.00 | 2.31 | 0.00 | 98 | 1017.2 |
| 20260510114020 | 64 | 0 | 0.0 | 1.0 | 0.00 | 2.31 | 0.00 | 98 | 1017.0 |
| 20260510113521 | 64 | 0 | 0.0 | 2.0 | 0.00 | 2.31 | 0.00 | 98 | 1016.9 |
| 20260510113041 | 64 | 0 | 0.0 | 3.0 | 0.00 | 2.31 | 0.00 | 98 | 1016.8 |
| 20260510112521 | 64 | 0 | 0.0 | 3.0 | 0.00 | 2.31 | 0.00 | 98 | 1016.6 |
| 20260510112023 | 64 | 48 | 0.0 | 3.0 | 0.00 | 2.31 | 0.00 | 98 | 1016.4 |
| 20260510111536 | 64 | 0 | 0.0 | 2.0 | 0.00 | 2.31 | 0.00 | 98 | 1016.2 |
| 20260510111021 | 64 | 0 | 0.0 | 4.0 | 0.00 | 2.31 | 0.00 | 98 | 1016.1 |
| 20260510110520 | 64 | 0 | 0.0 | 5.0 | 0.00 | 2.31 | 0.00 | 98 | 1016.1 |
| 20260510110047 | 64 | 11 | 2.0 | 5.0 | 0.00 | 2.31 | 0.00 | 98 | 1015.9 |
| 20260510105522 | 64 | 5 | 1.0 | 4.0 | 0.00 | 2.31 | 0.00 | 98 | 1015.8 |
| 20260510105020 | 65 | 9 | 1.0 | 3.0 | 0.00 | 2.31 | 0.00 | 98 | 1015.6 |
| 20260510104540 | 65 | 0 | 1.0 | 4.0 | 0.00 | 2.31 | 0.00 | 98 | 1015.6 |
| 20260510104021 | 65 | 0 | 0.0 | 4.0 | 0.00 | 2.31 | 0.00 | 98 | 1015.6 |
| 20260510103521 | 65 | 11 | 1.0 | 4.0 | 0.00 | 2.31 | 0.00 | 98 | 1015.4 |
| 20260510103039 | 65 | 11 | 1.0 | 4.0 | 0.00 | 2.31 | 0.00 | 98 | 1015.5 |
| 20260510102521 | 65 | 84 | 0.0 | 2.0 | 0.00 | 2.31 | 0.00 | 98 | 1015.3 |
| 20260510102021 | 65 | 0 | 0.0 | 3.0 | 0.00 | 2.31 | 0.00 | 98 | 1015.3 |
| 20260510101541 | 65 | 0 | 0.0 | 3.0 | 0.00 | 2.31 | 0.00 | 98 | 1015.2 |
| 20260510101022 | 65 | 84 | 0.0 | 3.0 | 0.00 | 2.31 | 0.00 | 98 | 1015.3 |
| 20260510100522 | 65 | 0 | 1.0 | 3.0 | 0.00 | 2.31 | 0.00 | 98 | 1015.2 |
| 20260510100047 | 65 | 0 | 0.0 | 3.0 | 0.00 | 2.31 | 0.00 | 98 | 1015.1 |
| 20260510095521 | 65 | 0 | 1.0 | 3.0 | 0.00 | 2.31 | 0.00 | 98 | 1015.0 |
| 20260510095021 | 65 | 0 | 0.0 | 2.0 | 0.00 | 2.31 | 0.00 | 98 | 1015.1 |
| 20260510094541 | 65 | 85 | 1.0 | 2.0 | 0.00 | 2.31 | 0.00 | 98 | 1014.9 |
| 20260510094022 | 65 | 0 | 0.0 | 3.0 | 0.00 | 2.31 | 0.00 | 98 | 1015.0 |
| 20260510093521 | 65 | 85 | 1.0 | 3.0 | 0.00 | 2.31 | 0.00 | 98 | 1015.0 |
| 20260510093039 | 65 | 0 | 0.0 | 3.0 | 0.00 | 2.31 | 0.00 | 98 | 1015.0 |
| 20260510092522 | 65 | 85 | 0.0 | 3.0 | 0.00 | 2.31 | 0.00 | 98 | 1015.0 |
| 20260510092021 | 65 | 0 | 0.0 | 3.0 | 0.00 | 2.31 | 0.00 | 98 | 1015.0 |
| 20260510091534 | 65 | 83 | 1.0 | 3.0 | 0.00 | 2.31 | 0.00 | 98 | 1015.1 |
| 20260510091020 | 65 | 83 | 0.0 | 3.0 | 0.00 | 2.31 | 0.00 | 98 | 1015.1 |
| 20260510090522 | 65 | 83 | 1.0 | 3.0 | 0.00 | 2.31 | 0.00 | 98 | 1015.2 |
| 20260510090035 | 65 | 0 | 0.0 | 2.0 | 0.00 | 2.31 | 0.00 | 98 | 1015.2 |
| 20260510085521 | 65 | 355 | 0.0 | 2.0 | 0.00 | 2.34 | 0.00 | 98 | 1015.2 |
| 20260510085021 | 65 | 352 | 0.0 | 2.0 | 0.00 | 2.34 | 0.00 | 98 | 1015.1 |
| 20260510084539 | 65 | 0 | 0.0 | 1.0 | 0.00 | 2.34 | 0.00 | 98 | 1015.1 |
| 20260510084020 | 65 | 0 | 0.0 | 4.0 | 0.00 | 2.34 | 0.00 | 98 | 1015.1 |
| 20260510083523 | 65 | 0 | 1.0 | 4.0 | 0.00 | 2.34 | 0.00 | 98 | 1015.0 |
| 20260510083036 | 66 | 352 | 1.0 | 4.0 | 0.00 | 2.34 | 0.00 | 98 | 1015.0 |
| 20260510082519 | 66 | 0 | 1.0 | 4.0 | 0.00 | 2.34 | 0.00 | 98 | 1015.0 |
| 20260510082019 | 66 | 62 | 1.0 | 3.0 | 0.00 | 2.34 | 0.00 | 98 | 1015.0 |
| 20260510081541 | 66 | 62 | 1.0 | 3.0 | 0.00 | 2.34 | 0.00 | 98 | 1014.9 |
| 20260510081022 | 66 | 69 | 1.0 | 4.0 | 0.00 | 2.34 | 0.00 | 98 | 1015.0 |
| 20260510080521 | 66 | 69 | 1.0 | 4.0 | 0.00 | 2.34 | 0.00 | 98 | 1014.9 |
| 20260510080051 | 66 | 69 | 1.0 | 4.0 | 0.00 | 2.34 | 0.00 | 98 | 1014.9 |
| 20260510075522 | 66 | 101 | 0.0 | 2.0 | 0.00 | 2.36 | 0.00 | 98 | 1014.7 |
| 20260510075022 | 66 | 0 | 0.0 | 2.0 | 0.00 | 2.36 | 0.00 | 98 | 1014.8 |
| 20260510074538 | 66 | 0 | 0.0 | 2.0 | 0.00 | 2.36 | 0.00 | 98 | 1014.8 |
| 20260510074021 | 66 | 0 | 0.0 | 2.0 | 0.00 | 2.36 | 0.00 | 98 | 1014.7 |
| 20260510073521 | 66 | 103 | 0.0 | 2.0 | 0.00 | 2.36 | 0.00 | 98 | 1014.7 |
| 20260510073049 | 66 | 0 | 0.0 | 2.0 | 0.00 | 2.36 | 0.00 | 98 | 1014.6 |
| 20260510072518 | 66 | 0 | 0.0 | 2.0 | 0.00 | 2.36 | 0.00 | 98 | 1014.5 |
| 20260510072018 | 66 | 0 | 0.0 | 2.0 | 0.00 | 2.36 | 0.00 | 98 | 1014.4 |
| 20260510071538 | 66 | 103 | 1.0 | 3.0 | 0.00 | 2.36 | 0.00 | 98 | 1014.3 |
| 20260510071018 | 66 | 0 | 0.0 | 3.0 | 0.00 | 2.36 | 0.00 | 98 | 1014.3 |
| 20260510070518 | 66 | 38 | 1.0 | 3.0 | 0.00 | 2.36 | 0.00 | 98 | 1014.3 |
| 20260510070046 | 66 | 38 | 1.0 | 3.0 | 0.00 | 2.36 | 0.00 | 98 | 1014.4 |
| 20260510065518 | 66 | 0 | 0.0 | 2.0 | 0.00 | 2.36 | 0.00 | 98 | 1014.4 |
| 20260510065021 | 66 | 0 | 0.0 | 4.0 | 0.00 | 2.36 | 0.00 | 98 | 1014.5 |
| 20260510064543 | 66 | 0 | 1.0 | 4.0 | 0.00 | 2.36 | 0.00 | 98 | 1014.6 |
| 20260510064021 | 66 | 69 | 0.0 | 2.0 | 0.00 | 2.36 | 0.00 | 98 | 1014.7 |
| 20260510063521 | 66 | 0 | 0.0 | 3.0 | 0.00 | 2.36 | 0.00 | 98 | 1014.7 |
| 20260510063038 | 66 | 0 | 0.0 | 3.0 | 0.00 | 2.36 | 0.00 | 98 | 1014.8 |
| 20260510062519 | 66 | 69 | 0.0 | 3.0 | 0.00 | 2.36 | 0.00 | 98 | 1014.8 |
| 20260510062020 | 66 | 0 | 0.0 | 0.0 | 0.00 | 2.36 | 0.00 | 98 | 1014.9 |
| 20260510061535 | 66 | 0 | 0.0 | 0.0 | 0.00 | 2.36 | 0.00 | 98 | 1014.9 |
| 20260510061019 | 66 | 0 | 0.0 | 0.0 | 0.00 | 2.36 | 0.00 | 98 | 1015.0 |
| 20260510060519 | 66 | 0 | 0.0 | 2.0 | 0.00 | 2.36 | 0.00 | 98 | 1015.0 |
| 20260510060041 | 66 | 0 | 0.0 | 3.0 | 0.00 | 2.36 | 0.00 | 98 | 1015.0 |
| 20260510055526 | 66 | 68 | 0.0 | 3.0 | 0.00 | 2.46 | 0.00 | 98 | 1015.1 |
| 20260510055018 | 66 | 68 | 1.0 | 3.0 | 0.00 | 2.46 | 0.00 | 98 | 1015.1 |
| 20260510054537 | 66 | 68 | 0.0 | 3.0 | 0.00 | 2.46 | 0.00 | 98 | 1015.2 |
| 20260510054018 | 66 | 0 | 0.0 | 3.0 | 0.00 | 2.46 | 0.00 | 98 | 1015.0 |
| 20260510053520 | 66 | 69 | 0.0 | 2.0 | 0.00 | 2.46 | 0.00 | 98 | 1014.9 |
| 20260510053037 | 66 | 69 | 0.0 | 2.0 | 0.00 | 2.46 | 0.00 | 98 | 1014.9 |
| 20260510052519 | 66 | 69 | 0.0 | 3.0 | 0.00 | 2.46 | 0.00 | 98 | 1015.0 |
| 20260510052018 | 66 | 0 | 1.0 | 3.0 | 0.00 | 2.46 | 0.00 | 98 | 1015.1 |
| 20260510051536 | 66 | 0 | 0.0 | 2.0 | 0.00 | 2.46 | 0.00 | 98 | 1015.2 |
| 20260510051018 | 66 | 0 | 0.0 | 3.0 | 0.00 | 2.46 | 0.00 | 98 | 1015.1 |
| 20260510050519 | 66 | 69 | 0.0 | 3.0 | 0.00 | 2.46 | 0.00 | 98 | 1015.0 |
| 20260510050037 | 66 | 69 | 1.0 | 3.0 | 0.00 | 2.46 | 0.00 | 98 | 1015.0 |
| 20260510045522 | 66 | 0 | 1.0 | 3.0 | 0.00 | 2.48 | 2.46 | 98 | 1015.0 |
| 20260510045019 | 66 | 88 | 1.0 | 3.0 | 0.00 | 2.48 | 2.46 | 98 | 1015.1 |
| 20260510044536 | 66 | 0 | 0.0 | 0.0 | 0.00 | 2.48 | 2.46 | 98 | 1014.9 |
| 20260510044019 | 66 | 0 | 0.0 | 0.0 | 0.00 | 2.48 | 2.46 | 98 | 1014.9 |
| 20260510043518 | 66 | 0 | 0.0 | 0.0 | 0.00 | 2.48 | 2.46 | 98 | 1014.9 |
| 20260510043034 | 67 | 0 | 0.0 | 0.0 | 0.00 | 2.48 | 2.46 | 98 | 1014.7 |
| 20260510042518 | 66 | 0 | 0.0 | 2.0 | 0.00 | 2.48 | 2.46 | 98 | 1014.8 |
| 20260510042020 | 67 | 0 | 0.0 | 3.0 | 0.00 | 2.48 | 2.46 | 98 | 1014.9 |
| 20260510041539 | 67 | 88 | 1.0 | 3.0 | 0.00 | 2.48 | 2.46 | 98 | 1014.9 |
| 20260510041023 | 66 | 88 | 1.0 | 3.0 | 0.00 | 2.48 | 2.46 | 98 | 1014.9 |
| 20260510040519 | 66 | 0 | 0.0 | 3.0 | 0.00 | 2.48 | 2.46 | 98 | 1014.7 |
| 20260510040038 | 67 | 0 | 0.0 | 4.0 | 0.00 | 2.48 | 2.46 | 98 | 1014.6 |
| 20260510035521 | 67 | 130 | 0.0 | 6.0 | 0.00 | 2.48 | 2.46 | 98 | 1014.6 |
| 20260510035019 | 67 | 130 | 0.0 | 6.0 | 0.00 | 2.48 | 2.46 | 98 | 1014.7 |
| 20260510034536 | 67 | 111 | 2.0 | 5.0 | 0.00 | 2.48 | 2.46 | 98 | 1014.6 |
| 20260510034022 | 67 | 0 | 0.0 | 2.0 | 0.00 | 2.48 | 2.46 | 98 | 1015.1 |
| 20260510033519 | 67 | 0 | 0.0 | 2.0 | 0.00 | 2.48 | 2.46 | 98 | 1015.3 |
| 20260510033046 | 67 | 0 | 0.0 | 4.0 | 0.00 | 2.48 | 2.46 | 98 | 1015.3 |
| 20260510032519 | 67 | 0 | 0.0 | 4.0 | 0.00 | 2.48 | 2.46 | 98 | 1015.2 |
| 20260510032019 | 67 | 16 | 0.0 | 3.0 | 0.00 | 2.48 | 2.46 | 98 | 1015.3 |
| 20260510031538 | 67 | 0 | 0.0 | 3.0 | 0.00 | 2.48 | 2.46 | 98 | 1015.5 |
| 20260510031019 | 67 | 16 | 1.0 | 3.0 | 0.00 | 2.48 | 2.46 | 98 | 1015.4 |
| 20260510030519 | 67 | 0 | 0.0 | 0.0 | 0.00 | 2.48 | 2.46 | 98 | 1015.6 |
| 20260510030034 | 67 | 0 | 0.0 | 0.0 | 0.00 | 2.48 | 2.46 | 98 | 1015.6 |
| 20260510025522 | 67 | 0 | 0.0 | 0.0 | 0.00 | 2.48 | 2.46 | 98 | 1015.6 |
| 20260510025020 | 67 | 0 | 0.0 | 0.0 | 0.00 | 2.48 | 2.46 | 98 | 1015.5 |
| 20260510024535 | 67 | 0 | 0.0 | 3.0 | 0.00 | 2.48 | 2.46 | 98 | 1015.4 |
| 20260510024022 | 67 | 0 | 0.0 | 3.0 | 0.00 | 2.48 | 2.46 | 98 | 1015.1 |
| 20260510023520 | 67 | 15 | 0.0 | 2.0 | 0.00 | 2.48 | 2.46 | 98 | 1014.8 |
| 20260510023036 | 67 | 15 | 0.0 | 2.0 | 0.00 | 2.48 | 2.46 | 98 | 1014.6 |
| 20260510022519 | 67 | 0 | 0.0 | 2.0 | 0.00 | 2.48 | 2.46 | 98 | 1014.7 |
| 20260510022019 | 67 | 0 | 0.0 | 2.0 | 0.00 | 2.48 | 2.46 | 98 | 1014.8 |
| 20260510021616 | 67 | 0 | 0.0 | 3.0 | 0.00 | 2.48 | 2.46 | 98 | 1014.5 |
| 20260510021019 | 67 | 0 | 1.0 | 3.0 | 0.00 | 2.48 | 2.46 | 98 | 1014.6 |
| 20260510020519 | 67 | 14 | 0.0 | 3.0 | 0.00 | 2.48 | 2.46 | 98 | 1014.7 |
| 20260510020035 | 67 | 0 | 0.0 | 3.0 | 0.00 | 2.48 | 2.46 | 98 | 1015.1 |
| 20260510015521 | 67 | 0 | 0.0 | 3.0 | 0.00 | 2.48 | 2.46 | 98 | 1015.0 |
| 20260510015018 | 67 | 0 | 0.0 | 2.0 | 0.01 | 2.48 | 2.46 | 98 | 1015.0 |
| 20260510014548 | 67 | 0 | 0.0 | 3.0 | 0.01 | 2.48 | 2.46 | 98 | 1014.7 |
| 20260510014020 | 67 | 0 | 0.0 | 4.0 | 0.02 | 2.48 | 2.46 | 98 | 1014.6 |
| 20260510013522 | 67 | 14 | 1.0 | 4.0 | 0.03 | 2.48 | 2.46 | 98 | 1014.7 |
| 20260510013034 | 67 | 17 | 1.0 | 4.0 | 0.03 | 2.48 | 2.46 | 98 | 1014.6 |
| 20260510012519 | 67 | 0 | 0.0 | 4.0 | 0.03 | 2.48 | 2.46 | 98 | 1014.4 |
| 20260510012019 | 67 | 17 | 2.0 | 9.0 | 0.03 | 2.48 | 2.46 | 98 | 1014.4 |
| 20260510011534 | 67 | 0 | 2.0 | 9.0 | 0.04 | 2.48 | 2.46 | 98 | 1014.6 |
| 20260510011021 | 67 | 323 | 3.0 | 9.0 | 0.04 | 2.48 | 2.46 | 98 | 1014.7 |
| 20260510010517 | 67 | 303 | 1.0 | 9.0 | 0.04 | 2.48 | 2.46 | 98 | 1014.2 |
| 20260510010049 | 67 | 0 | 2.0 | 10.0 | 0.04 | 2.48 | 2.46 | 98 | 1013.4 |
| 20260510005522 | 67 | 136 | 3.0 | 10.0 | 0.04 | 2.50 | 2.46 | 98 | 1013.2 |
| 20260510005022 | 67 | 153 | 5.0 | 10.0 | 0.04 | 2.49 | 2.45 | 98 | 1013.2 |
| 20260510004535 | 67 | 161 | 4.0 | 8.0 | 0.04 | 2.49 | 2.45 | 98 | 1013.6 |
| 20260510004019 | 67 | 148 | 2.0 | 4.0 | 0.03 | 2.48 | 2.44 | 97 | 1013.8 |
| 20260510003519 | 67 | 0 | 0.0 | 3.0 | 0.02 | 2.47 | 2.43 | 97 | 1013.9 |
| 20260510003036 | 67 | 0 | 0.0 | 3.0 | 0.02 | 2.47 | 2.43 | 97 | 1014.0 |
| 20260510002520 | 67 | 0 | 1.0 | 3.0 | 0.03 | 2.47 | 2.43 | 97 | 1013.4 |
| 20260510002019 | 67 | 0 | 1.0 | 4.0 | 0.04 | 2.47 | 2.43 | 97 | 1013.2 |
| 20260510001535 | 67 | 116 | 2.0 | 4.0 | 0.03 | 2.46 | 2.42 | 97 | 1013.3 |
| 20260510001019 | 67 | 109 | 1.0 | 4.0 | 0.03 | 2.46 | 2.42 | 97 | 1013.6 |
| 20260510000520 | 67 | 0 | 1.0 | 4.0 | 0.04 | 2.46 | 2.42 | 97 | 1014.1 |
| 20260510000041 | 67 | 0 | 0.0 | 3.0 | 0.04 | 2.46 | 2.42 | 97 | 1014.2 |
| 20260509235520 | 67 | 0 | 0.0 | 4.0 | 0.05 | 2.48 | 2.42 | 97 | 1014.1 |
| 20260509235019 | 67 | 109 | 0.0 | 4.0 | 0.04 | 2.47 | 2.41 | 97 | 1013.8 |
| 20260509234538 | 67 | 109 | 1.0 | 4.0 | 0.04 | 2.47 | 2.41 | 97 | 1013.9 |
| 20260509234018 | 67 | 109 | 1.0 | 6.0 | 0.05 | 2.47 | 2.41 | 97 | 1014.1 |
| 20260509233519 | 67 | 0 | 2.0 | 6.0 | 0.05 | 2.47 | 2.41 | 97 | 1014.0 |
| 20260509233036 | 67 | 0 | 2.0 | 4.0 | 0.06 | 2.47 | 2.41 | 97 | 1013.7 |
| 20260509232521 | 67 | 84 | 1.0 | 3.0 | 0.06 | 2.46 | 2.40 | 97 | 1013.8 |
| 20260509232019 | 67 | 84 | 0.0 | 3.0 | 0.06 | 2.45 | 2.39 | 97 | 1013.7 |
| 20260509231537 | 67 | 84 | 1.0 | 3.0 | 0.07 | 2.45 | 2.39 | 97 | 1013.6 |
| 20260509231019 | 67 | 0 | 0.0 | 0.0 | 0.08 | 2.45 | 2.39 | 97 | 1013.8 |
| 20260509230519 | 67 | 0 | 0.0 | 0.0 | 0.07 | 2.44 | 2.38 | 97 | 1013.9 |
| 20260509230040 | 67 | 0 | 0.0 | 0.0 | 0.07 | 2.44 | 2.38 | 97 | 1013.8 |
| 20260509225519 | 67 | 0 | 0.0 | 4.0 | 0.07 | 2.60 | 2.36 | 97 | 1013.8 |
| 20260509225018 | 67 | 0 | 0.0 | 4.0 | 0.07 | 2.60 | 2.36 | 97 | 1014.0 |
| 20260509224536 | 67 | 30 | 2.0 | 4.0 | 0.07 | 2.60 | 2.36 | 97 | 1013.7 |
| 20260509224019 | 67 | 42 | 0.0 | 3.0 | 0.06 | 2.59 | 2.35 | 97 | 1013.4 |
| 20260509223519 | 66 | 236 | 0.0 | 3.0 | 0.06 | 2.59 | 2.35 | 97 | 1013.2 |
| 20260509223038 | 66 | 0 | 0.0 | 3.0 | 0.05 | 2.58 | 2.34 | 97 | 1013.7 |
| 20260509222519 | 66 | 0 | 1.0 | 4.0 | 0.05 | 2.57 | 2.33 | 97 | 1014.0 |
| 20260509222019 | 66 | 218 | 0.0 | 4.0 | 0.04 | 2.56 | 2.33 | 98 | 1013.8 |
| 20260509221538 | 66 | 218 | 0.0 | 4.0 | 0.03 | 2.55 | 2.32 | 98 | 1013.6 |
| 20260509221021 | 66 | 0 | 0.0 | 2.0 | 0.02 | 2.54 | 2.31 | 98 | 1013.9 |
| 20260509220522 | 66 | 0 | 0.0 | 2.0 | 0.03 | 2.54 | 2.31 | 98 | 1013.9 |
| 20260509220035 | 66 | 262 | 0.0 | 3.0 | 0.03 | 2.54 | 2.31 | 98 | 1013.7 |
| 20260509215517 | 66 | 0 | 1.0 | 3.0 | 0.03 | 2.69 | 2.30 | 98 | 1013.8 |
| 20260509215019 | 66 | 0 | 0.0 | 3.0 | 0.03 | 2.69 | 2.30 | 97 | 1013.4 |
| 20260509214539 | 66 | 0 | 1.0 | 3.0 | 0.04 | 2.69 | 2.30 | 97 | 1013.3 |
| 20260509214019 | 66 | 272 | 0.0 | 2.0 | 0.05 | 2.69 | 2.30 | 97 | 1013.3 |
| 20260509213519 | 66 | 0 | 0.0 | 2.0 | 0.06 | 2.69 | 2.30 | 97 | 1013.3 |
| 20260509213037 | 66 | 0 | 0.0 | 2.0 | 0.06 | 2.69 | 2.30 | 97 | 1013.0 |
| 20260509212520 | 66 | 0 | 0.0 | 6.0 | 0.05 | 2.68 | 2.29 | 97 | 1013.3 |
| 20260509212022 | 66 | 0 | 1.0 | 6.0 | 0.06 | 2.68 | 2.29 | 97 | 1013.2 |
| 20260509211537 | 66 | 13 | 0.0 | 3.0 | 0.07 | 2.68 | 2.29 | 97 | 1013.0 |
| 20260509211019 | 66 | 0 | 0.0 | 5.0 | 0.07 | 2.67 | 2.28 | 97 | 1012.6 |
| 20260509210521 | 66 | 0 | 0.0 | 8.0 | 0.08 | 2.67 | 2.28 | 97 | 1012.4 |
| 20260509210040 | 66 | 150 | 3.0 | 8.0 | 0.10 | 2.67 | 2.28 | 97 | 1012.3 |
| 20260509205517 | 66 | 123 | 1.0 | 6.0 | 0.11 | 2.91 | 2.27 | 97 | 1012.6 |
| 20260509205019 | 66 | 0 | 1.0 | 6.0 | 0.13 | 2.91 | 2.27 | 97 | 1012.7 |
| 20260509204539 | 66 | 158 | 3.0 | 6.0 | 0.13 | 2.90 | 2.26 | 97 | 1012.8 |
| 20260509204020 | 66 | 0 | 1.0 | 5.0 | 0.13 | 2.89 | 2.25 | 98 | 1013.3 |
| 20260509203523 | 66 | 300 | 2.0 | 5.0 | 0.14 | 2.88 | 2.24 | 97 | 1013.7 |
| 20260509203036 | 66 | 0 | 1.0 | 9.0 | 0.16 | 2.88 | 2.24 | 97 | 1013.0 |
| 20260509202523 | 66 | 163 | 4.0 | 9.0 | 0.17 | 2.87 | 2.23 | 97 | 1012.1 |
| 20260509202023 | 66 | 145 | 4.0 | 9.0 | 0.18 | 2.87 | 2.23 | 98 | 1012.2 |
| 20260509201539 | 65 | 163 | 3.0 | 7.0 | 0.19 | 2.86 | 2.22 | 97 | 1012.9 |
| 20260509201022 | 65 | 169 | 1.0 | 2.0 | 0.20 | 2.85 | 2.21 | 97 | 1013.8 |
| 20260509200519 | 65 | 0 | 0.0 | 2.0 | 0.19 | 2.83 | 2.19 | 97 | 1014.2 |
| 20260509200045 | 65 | 0 | 0.0 | 2.0 | 0.20 | 2.82 | 2.18 | 97 | 1014.5 |
| 20260509195524 | 65 | 169 | 0.0 | 2.0 | 0.19 | 3.48 | 2.16 | 97 | 1014.5 |
| 20260509195022 | 65 | 169 | 0.0 | 3.0 | 0.19 | 3.46 | 2.14 | 97 | 1014.5 |
| 20260509194550 | 65 | 0 | 0.0 | 5.0 | 0.18 | 3.45 | 2.13 | 97 | 1014.3 |
| 20260509194019 | 65 | 0 | 2.0 | 5.0 | 0.18 | 3.44 | 2.11 | 97 | 1014.1 |
| 20260509193525 | 65 | 0 | 0.0 | 4.0 | 0.16 | 3.41 | 2.08 | 97 | 1014.1 |
| 20260509193040 | 65 | 0 | 0.0 | 6.0 | 0.15 | 3.40 | 2.08 | 97 | 1014.3 |
| 20260509192519 | 65 | 163 | 2.0 | 6.0 | 0.13 | 3.38 | 2.06 | 97 | 1013.8 |
| 20260509192019 | 65 | 187 | 0.0 | 4.0 | 0.11 | 3.36 | 2.04 | 97 | 1014.2 |
| 20260509191538 | 65 | 0 | 0.0 | 4.0 | 0.10 | 3.35 | 2.03 | 97 | 1014.5 |
| 20260509191025 | 65 | 0 | 1.0 | 2.0 | 0.08 | 3.33 | 2.01 | 97 | 1014.5 |
| 20260509190519 | 65 | 0 | 0.0 | 3.0 | 0.06 | 3.31 | 1.99 | 97 | 1014.1 |
| 20260509190037 | 65 | 0 | 1.0 | 5.0 | 0.05 | 3.30 | 1.98 | 97 | 1014.5 |
| 20260509185524 | 65 | 194 | 0.0 | 5.0 | 0.04 | 3.90 | 1.97 | 97 | 1014.6 |
| 20260509185022 | 65 | 188 | 2.0 | 5.0 | 0.02 | 3.88 | 1.95 | 97 | 1014.2 |
| 20260509184536 | 65 | 0 | 0.0 | 3.0 | 0.02 | 3.88 | 1.95 | 97 | 1014.4 |
| 20260509184020 | 65 | 175 | 1.0 | 3.0 | 0.01 | 3.87 | 1.94 | 97 | 1014.2 |
| 20260509183519 | 65 | 176 | 0.0 | 5.0 | 0.00 | 3.86 | 1.93 | 97 | 1014.1 |
| 20260509183036 | 65 | 178 | 1.0 | 5.0 | 0.00 | 3.86 | 1.93 | 97 | 1014.3 |
| 20260509182520 | 65 | 145 | 0.0 | 3.0 | 0.00 | 3.86 | 1.93 | 97 | 1014.2 |
| 20260509182022 | 65 | 0 | 0.0 | 3.0 | 0.00 | 3.86 | 1.93 | 97 | 1014.2 |
| 20260509181538 | 65 | 144 | 1.0 | 4.0 | 0.00 | 3.86 | 1.93 | 97 | 1014.1 |
| 20260509181021 | 65 | 0 | 1.0 | 4.0 | 0.01 | 3.86 | 1.93 | 97 | 1014.3 |
| 20260509180522 | 65 | 175 | 0.0 | 7.0 | 0.01 | 3.86 | 1.93 | 97 | 1014.3 |
| 20260509180049 | 65 | 168 | 1.0 | 7.0 | 0.01 | 3.86 | 1.93 | 97 | 1014.3 |
| 20260509175519 | 65 | 136 | 1.0 | 7.0 | 0.01 | 4.32 | 1.93 | 97 | 1014.1 |
| 20260509175019 | 65 | 159 | 2.0 | 6.0 | 0.01 | 4.32 | 1.93 | 97 | 1013.8 |
| 20260509174537 | 65 | 166 | 2.0 | 6.0 | 0.01 | 4.32 | 1.93 | 97 | 1013.8 |
| 20260509174023 | 65 | 0 | 1.0 | 6.0 | 0.01 | 4.32 | 1.93 | 97 | 1014.3 |
| 20260509173520 | 65 | 147 | 2.0 | 9.0 | 0.01 | 4.32 | 1.93 | 97 | 1014.3 |
| 20260509173051 | 65 | 150 | 5.0 | 9.0 | 0.01 | 4.32 | 1.93 | 97 | 1014.3 |
| 20260509172525 | 65 | 0 | 2.0 | 9.0 | 0.01 | 4.32 | 1.93 | 97 | 1014.4 |
| 20260509172023 | 65 | 157 | 3.0 | 8.0 | 0.01 | 4.32 | 1.93 | 97 | 1014.3 |
| 20260509171541 | 65 | 133 | 1.0 | 5.0 | 0.00 | 4.31 | 1.92 | 97 | 1014.2 |
| 20260509171022 | 65 | 0 | 1.0 | 13.0 | 0.01 | 4.31 | 1.92 | 97 | 1014.3 |
| 20260509170523 | 64 | 133 | 3.0 | 13.0 | 0.02 | 4.31 | 1.92 | 97 | 1014.6 |
| 20260509170038 | 64 | 138 | 5.0 | 13.0 | 0.04 | 4.31 | 1.92 | 97 | 1014.3 |
| 20260509165521 | 64 | 223 | 1.0 | 9.0 | 0.05 | 4.31 | 1.92 | 97 | 1014.6 |
| 20260509165019 | 64 | 168 | 3.0 | 9.0 | 0.06 | 4.31 | 1.92 | 97 | 1014.0 |
| 20260509164538 | 64 | 122 | 4.0 | 9.0 | 0.08 | 4.31 | 1.92 | 97 | 1013.5 |
| 20260509164021 | 64 | 136 | 1.0 | 8.0 | 0.11 | 4.31 | 1.92 | 97 | 1014.2 |
| 20260509163523 | 64 | 113 | 2.0 | 10.0 | 0.12 | 4.31 | 1.92 | 97 | 1014.2 |
| 20260509163036 | 64 | 0 | 3.0 | 10.0 | 0.14 | 4.31 | 1.92 | 97 | 1014.2 |
| 20260509162523 | 64 | 113 | 5.0 | 10.0 | 0.15 | 4.31 | 1.92 | 97 | 1014.5 |
| 20260509162022 | 64 | 146 | 1.0 | 11.0 | 0.16 | 4.31 | 1.92 | 97 | 1014.7 |
| 20260509161546 | 64 | 144 | 3.0 | 11.0 | 0.16 | 4.31 | 1.92 | 97 | 1014.5 |
| 20260509161022 | 64 | 131 | 7.0 | 11.0 | 0.16 | 4.30 | 1.91 | 97 | 1013.5 |
| 20260509160521 | 64 | 121 | 5.0 | 12.0 | 0.16 | 4.29 | 1.90 | 97 | 1014.7 |
| 20260509160040 | 64 | 124 | 5.0 | 12.0 | 0.14 | 4.27 | 1.88 | 97 | 1015.3 |
| 20260509155522 | 64 | 173 | 4.0 | 10.0 | 0.14 | 4.26 | 1.87 | 97 | 1015.5 |
| 20260509155021 | 64 | 159 | 5.0 | 11.0 | 0.14 | 4.23 | 1.85 | 97 | 1015.5 |
| 20260509154545 | 64 | 175 | 4.0 | 11.0 | 0.13 | 4.21 | 1.83 | 97 | 1015.3 |
| 20260509154022 | 64 | 156 | 3.0 | 12.0 | 0.12 | 4.19 | 1.81 | 97 | 1015.4 |
| 20260509153519 | 64 | 161 | 6.0 | 12.0 | 0.11 | 4.17 | 1.79 | 97 | 1015.2 |
| 20260509153051 | 64 | 159 | 4.0 | 12.0 | 0.10 | 4.16 | 1.77 | 97 | 1014.8 |
| 20260509152519 | 64 | 164 | 3.0 | 12.0 | 0.11 | 4.16 | 1.77 | 97 | 1014.9 |
| 20260509152019 | 64 | 157 | 5.0 | 12.0 | 0.13 | 4.15 | 1.76 | 97 | 1014.7 |
| 20260509151543 | 64 | 122 | 3.0 | 9.0 | 0.15 | 4.15 | 1.76 | 97 | 1014.4 |
| 20260509151019 | 64 | 122 | 3.0 | 8.0 | 0.17 | 4.14 | 1.75 | 97 | 1014.6 |
| 20260509150519 | 64 | 69 | 4.0 | 8.0 | 0.17 | 4.13 | 1.74 | 97 | 1014.3 |
| 20260509150036 | 64 | 121 | 2.0 | 8.0 | 0.19 | 4.13 | 1.74 | 97 | 1014.5 |
| 20260509145523 | 64 | 111 | 3.0 | 7.0 | 0.20 | 4.12 | 1.72 | 97 | 1014.4 |
| 20260509145020 | 64 | 128 | 1.0 | 6.0 | 0.22 | 4.11 | 1.71 | 97 | 1014.6 |
| 20260509144545 | 64 | 117 | 2.0 | 6.0 | 0.23 | 4.10 | 1.70 | 97 | 1014.4 |
| 20260509144021 | 64 | 146 | 2.0 | 4.0 | 0.23 | 4.09 | 1.69 | 97 | 1014.5 |
| 20260509143521 | 64 | 148 | 1.0 | 3.0 | 0.24 | 4.08 | 1.68 | 97 | 1014.8 |
| 20260509143038 | 64 | 148 | 1.0 | 7.0 | 0.23 | 4.07 | 1.67 | 97 | 1014.7 |
| 20260509142519 | 64 | 149 | 1.0 | 7.0 | 0.23 | 4.05 | 1.65 | 96 | 1014.5 |
| 20260509142019 | 64 | 154 | 2.0 | 6.0 | 0.22 | 4.03 | 1.63 | 96 | 1014.5 |
| 20260509141542 | 65 | 0 | 1.0 | 4.0 | 0.20 | 4.00 | 1.60 | 96 | 1014.7 |
| 20260509141020 | 65 | 96 | 2.0 | 6.0 | 0.19 | 3.98 | 1.58 | 96 | 1014.9 |
| 20260509140519 | 65 | 107 | 2.0 | 6.0 | 0.18 | 3.96 | 1.56 | 96 | 1014.7 |
| 20260509140052 | 65 | 107 | 2.0 | 5.0 | 0.18 | 3.94 | 1.54 | 96 | 1014.4 |
| 20260509135520 | 65 | 120 | 1.0 | 4.0 | 0.18 | 3.92 | 1.52 | 96 | 1014.7 |
| 20260509135020 | 65 | 119 | 1.0 | 4.0 | 0.18 | 3.89 | 1.49 | 96 | 1014.8 |
| 20260509134532 | 65 | 122 | 0.0 | 5.0 | 0.19 | 3.87 | 1.47 | 96 | 1014.6 |
| 20260509134021 | 65 | 45 | 0.0 | 5.0 | 0.21 | 3.85 | 1.45 | 96 | 1014.6 |
| 20260509133519 | 65 | 42 | 1.0 | 4.0 | 0.25 | 3.84 | 1.44 | 96 | 1014.9 |
| 20260509133039 | 65 | 0 | 1.0 | 5.0 | 0.31 | 3.84 | 1.44 | 96 | 1015.0 |
| 20260509132522 | 65 | 0 | 1.0 | 5.0 | 0.42 | 3.82 | 1.42 | 96 | 1015.1 |
| 20260509132020 | 65 | 30 | 3.0 | 6.0 | 0.56 | 3.81 | 1.41 | 96 | 1015.4 |
| 20260509131534 | 65 | 42 | 1.0 | 11.0 | 0.77 | 3.80 | 1.40 | 96 | 1015.3 |
| 20260509131022 | 65 | 346 | 4.0 | 11.0 | 1.01 | 3.79 | 1.39 | 96 | 1015.2 |
| 20260509130519 | 66 | 5 | 3.0 | 11.0 | 1.17 | 3.78 | 1.38 | 96 | 1014.9 |
| 20260509130034 | 66 | 23 | 4.0 | 11.0 | 1.20 | 3.76 | 1.36 | 96 | 1015.2 |
| 20260509125519 | 66 | 334 | 4.0 | 11.0 | 1.16 | 3.73 | 1.33 | 96 | 1015.2 |
| 20260509125021 | 66 | 346 | 1.0 | 7.0 | 1.14 | 3.70 | 1.30 | 96 | 1015.2 |
| 20260509124536 | 66 | 306 | 2.0 | 7.0 | 1.12 | 3.68 | 1.28 | 96 | 1015.0 |
| 20260509124019 | 66 | 302 | 2.0 | 8.0 | 1.07 | 3.63 | 1.23 | 96 | 1014.4 |
| 20260509123519 | 66 | 352 | 1.0 | 8.0 | 1.02 | 3.58 | 1.17 | 96 | 1014.1 |
| 20260509123037 | 66 | 245 | 3.0 | 13.0 | 0.97 | 3.52 | 1.12 | 96 | 1014.3 |
| 20260509122520 | 66 | 347 | 3.0 | 15.0 | 0.81 | 3.36 | 0.96 | 96 | 1013.6 |
| 20260509122020 | 66 | 295 | 6.0 | 15.0 | 0.68 | 3.23 | 0.83 | 96 | 1013.9 |
| 20260509121534 | 67 | 328 | 6.0 | 17.0 | 0.44 | 2.99 | 0.58 | 96 | 1013.8 |
| 20260509121020 | 67 | 279 | 3.0 | 17.0 | 0.19 | 2.74 | 0.34 | 96 | 1013.3 |
| 20260509120520 | 68 | 269 | 5.0 | 13.0 | 0.02 | 2.57 | 0.17 | 96 | 1013.0 |
| 20260509120033 | 68 | 285 | 2.0 | 6.0 | 0.01 | 2.56 | 0.16 | 96 | 1012.4 |